Wind_Speed
24 22 20 19 19 20 22 23 22 23 23 21 20 19 18 17 15 16 15 15 17 18 18 13 11 8 10 14 11 8 13 16 18 19 21 22 23 26 27 26 26 28 27
19 19 19 18 19 21 22 21 22 20 18 19 18 16 16 13 13 14 13 14 17 18 13 13 12 11 10 13 14 13 14 17 20 22 22 24 24 26 26 24 27 27 27
19 20 18 18 19 20 19 20 17 15 16 17 15 12 11 10 10 11 11 14 16 14 16 15 11 10 12 16 15 13 12 19 21 24 22 25 25 24 25 25 25 25 24
19 19 18 18 19 17 17 17 16 15 15 14 12 11 8 8 9 9 12 14 14 14 14 8 11 10 13 16 18 13 14 23 22 22 22 25 26 23 22 24 25 25 24
18 17 17 17 16 17 17 17 17 16 15 16 12 11 10 8 8 9 10 12 12 12 12 7 9 9 12 11 16 18 18 20 22 23 19 22 22 24 22 23 25 26 26
17 17 16 15 15 16 17 16 16 16 16 16 13 11 11 11 11 10 9 9 11 10 7 4 10 10 10 11 14 20 20 23 27 24 22 24 23 23 22 24 24 25 23
16 16 16 14 13 14 14 12 13 15 15 16 11 9 10 13 12 10 8 7 8 4 8 3 8 12 10 15 22 21 21 22 24 25 26 26 24 23 22 20 17 15 19
17 16 15 12 12 11 10 10 11 13 14 12 9 8 9 9 10 7 6 5 6 6 2 4 11 15 12 14 20 23 21 22 23 21 23 27 25 24 22 18 19 17 25
16 16 13 11 10 9 8 9 11 11 12 12 8 7 9 8 8 5 4 3 6 2 4 2 9 15 15 12 18 23 21 19 19 19 20 24 23 22 23 23 21 20 22
15 14 13 11 9 7 7 6 8 11 12 10 7 7 9 8 8 5 2 3 5 3 3 4 6 9 13 15 18 20 23 22 21 20 20 19 20 24 24 25 27 25 16
14 14 12 9 8 8 5 5 7 8 12 10 7 7 9 9 7 4 2 3 5 3 3 6 9 10 16 19 20 23 26 25 23 21 20 21 25 24 25 27 26 28 13
14 14 11 9 9 7 6 8 7 8 9 10 8 9 9 9 7 4 2 2 3 3 6 7 7 11 15 19 22 24 24 27 24 22 25 21 23 21 20 20 19 25 19
15 12 10 9 9 6 7 9 8 6 8 9 10 10 12 8 7 4 2 1 3 6 6 7 10 11 13 20 25 24 23 23 25 25 25 26 22 17 16 20 17 19 21
14 11 10 10 8 4 5 4 2 5 9 10 13 12 14 8 7 5 4 4 4 7 8 10 13 14 14 18 26 28 28 24 25 26 27 22 17 17 20 22 24 25 25
13 10 10 8 6 3 3 2 1 3 9 15 16 16 15 10 7 5 6 7 5 6 7 9 8 7 12 17 23 28 28 26 24 23 23 22 18 18 23 24 24 24 21
12 10 9 7 5 4 3 1 2 4 12 17 17 17 11 9 5 6 9 8 6 6 10 9 10 13 15 22 25 24 24 23 21 20 21 22 24 22 19 21 22 21 20
12 12 10 9 8 6 3 1 1 9 11 15 18 14 10 7 6 8 8 7 8 8 13 11 15 22 22 23 24 24 22 20 19 19 22 22 22 21 20 19 21 21 18
14 12 11 12 10 5 0 2 4 16 15 16 16 14 12 10 9 9 10 8 11 14 17 15 16 22 20 18 20 20 17 19 21 21 22 22 20 18 18 19 18 16 13
16 15 15 16 11 7 3 8 16 18 17 15 15 15 14 13 12 12 11 11 15 17 17 17 18 19 15 9 13 18 24 26 24 22 20 18 16 15 15 15 14 12 12
19 18 20 19 14 9 7 10 13 15 16 16 16 15 12 11 10 11 13 12 12 13 15 16 18 18 15 17 18 20 20 18 16 15 15 14 14 13 13 12 11 12 12
21 21 22 20 17 13 10 11 14 16 16 15 15 16 16 13 12 12 12 12 12 13 14 17 19 19 19 18 16 15 14 13 13 13 13 13 12 12 12 13 13 11 12
23 23 24 22 19 17 15 13 12 13 13 13 13 12 13 14 15 14 14 14 13 13 13 14 14 13 13 13 13 14 15 14 14 14 13 12 12 12 12 12 13 14 15
26 25 24 24 23 20 17 16 15 13 11 11 10 10 11 11 12 12 11 11 10 10 10 12 13 13 13 15 15 15 14 14 14 14 14 14 13 14 15 15 15 15 17
31 30 28 27 25 24 22 19 17 16 14 11 9 8 7 7 8 7 7 6 7 8 8 8 9 10 12 14 15 17 17 16 16 17 18 20 20 19 19 18 19 20 21
34 32 32 31 30 28 25 23 21 19 18 16 15 14 13 12 11 10 10 10 9 9 9 9 10 11 13 15 17 18 18 19 19 20 20 20 20 21 22 23 23 23 25
40 37 35 34 33 31 30 27 25 23 22 21 20 19 18 18 17 17 18 18 18 18 18 19 18 17 17 16 18 20 21 22 22 22 22 22 22 23 25 26 28 29 30
Wind_Direction
252 249 244 244 251 255 262 261 269 281 285 290 290 283 282 282 275 280 278 288 289 292 289 278 256 262 227 214 221 222 211 204 207 199 198 197 193 193 192 194 195 193 199
236 239 237 242 248 258 259 266 277 279 284 291 286 281 280 269 274 278 280 286 293 292 293 281 251 238 213 215 217 223 212 205 195 191 192 191 192 190 189 190 194 194 197
234 231 234 238 248 257 263 275 271 276 284 286 284 274 262 272 278 277 274 293 299 293 297 288 222 219 208 203 204 204 198 193 195 192 192 191 189 188 190 192 192 195 195
227 227 231 239 251 260 272 268 270 272 276 284 282 264 264 268 275 272 280 303 299 301 292 284 222 207 191 204 204 199 193 192 188 190 192 193 193 190 189 192 192 192 193
219 225 230 247 258 269 272 267 267 263 272 276 283 274 259 258 275 278 283 298 303 308 349 266 201 184 182 197 202 192 187 184 188 187 184 185 189 192 192 193 194 190 190
220 221 236 247 260 273 274 271 265 255 258 270 280 269 251 240 267 282 294 290 301 311 313 331 177 171 172 181 176 171 171 169 172 184 185 186 185 188 187 187 193 191 198
221 226 239 248 266 272 275 275 267 252 247 260 277 274 254 239 261 275 299 309 316 319 327 330 174 162 151 167 169 174 176 176 176 181 180 181 183 185 190 191 195 177 165
219 233 236 254 268 265 273 265 257 244 241 250 276 281 241 235 255 263 291 319 354 327 289 349 179 160 159 162 172 171 172 174 182 177 184 174 175 180 189 190 177 167 160
222 232 234 254 266 268 267 259 250 237 229 252 286 269 227 234 237 253 271 330 343 327 340 105 146 165 152 153 166 174 171 167 174 175 177 180 176 174 178 177 177 176 169
227 227 234 248 263 257 243 255 251 232 231 251 266 248 222 214 207 226 251 313 336 58 19 112 137 152 152 154 161 168 168 168 167 165 171 170 176 174 179 174 167 164 184
228 225 232 245 249 248 248 268 280 265 240 242 246 234 210 202 199 204 243 310 348 56 93 125 142 168 158 159 157 159 159 158 160 162 161 167 169 172 174 179 182 184 173
224 226 233 242 247 248 265 274 271 274 242 231 231 214 196 192 193 191 226 272 341 122 132 134 122 159 174 169 160 154 156 155 157 161 161 162 163 162 177 184 190 195 185
221 226 236 247 252 251 268 276 270 259 224 213 208 203 186 183 189 184 195 359 118 127 117 132 128 122 149 163 163 157 151 151 153 158 160 160 164 179 175 178 186 187 175
222 227 239 252 250 256 273 280 273 226 212 199 188 180 177 186 187 174 171 155 126 127 123 130 120 107 124 150 167 164 160 162 162 162 159 166 176 185 190 188 181 173 168
219 223 241 242 227 235 230 251 236 229 195 180 179 174 172 183 182 183 176 167 169 143 147 141 146 142 126 148 161 166 162 160 163 169 172 172 167 159 162 165 171 169 166
211 221 228 211 196 181 164 129 183 143 162 170 173 168 161 174 182 174 159 152 152 150 155 147 142 134 133 143 143 148 156 154 161 168 176 170 164 169 170 171 158 178 182
206 213 203 186 166 159 158 191 207 175 169 166 167 165 157 162 165 164 156 146 151 152 143 131 139 131 127 144 140 139 142 147 149 152 155 159 158 156 168 180 184 183 186
201 201 190 179 164 155 6 334 208 168 161 157 158 152 144 140 142 152 153 148 150 150 142 135 143 143 136 135 143 144 148 153 153 158 160 163 166 170 178 183 185 191 205
193 189 181 172 162 151 115 91 128 147 152 153 153 149 146 140 136 135 138 152 149 150 151 148 151 163 156 160 172 173 162 159 159 161 164 171 173 178 187 193 202 217 234
193 187 183 172 165 161 147 131 129 130 134 144 145 141 140 138 131 127 126 131 140 151 154 155 164 169 163 153 153 161 163 165 166 167 172 176 182 190 199 208 223 235 235
192 190 189 181 173 165 160 145 138 139 138 139 140 144 145 142 136 132 131 134 139 136 143 148 150 154 157 162 165 168 173 175 175 177 179 186 197 211 223 233 238 235 237
196 195 193 192 188 180 165 159 151 149 151 157 161 160 157 151 144 138 134 132 137 149 157 165 169 173 177 182 187 189 185 182 185 192 199 208 216 219 226 234 241 248 255
194 200 202 203 200 196 189 174 167 166 166 163 161 162 165 165 166 164 159 155 153 149 151 164 171 174 178 179 181 185 193 200 205 211 217 222 228 231 234 242 252 261 268
201 202 204 207 209 208 205 204 195 190 189 194 194 190 190 191 191 190 191 193 192 188 187 189 190 194 202 204 206 209 213 216 222 228 232 232 236 242 250 258 267 273 276
202 204 208 209 209 211 212 211 213 215 217 220 223 224 225 227 227 226 224 222 225 227 228 229 231 234 235 234 235 240 247 253 257 259 261 262 265 270 278 283 283 282 284
207 204 205 207 209 210 212 213 214 218 221 222 223 228 233 235 237 239 240 240 239 239 239 241 241 241 244 249 251 250 252 255 257 260 263 267 272 277 279 279 279 279 280
Height
5730 5730 5731 5732 5732 5733 5732 5732 5731 5729 5727 5725 5723 5721 5720 5718 5717 5717 5716 5714 5711 5708 5705 5704 5703 5703 5703 5705 5706 5707 5709 5712 5715 5718 5722 5726 5730 5735 5740 5744 5749 5754 5759
5724 5726 5727 5727 5728 5728 5728 5727 5726 5724 5723 5721 5718 5717 5716 5715 5715 5714 5712 5710 5707 5704 5702 5701 5699 5699 5700 5702 5704 5706 5708 5710 5713 5717 5721 5725 5730 5734 5739 5743 5748 5753 5757
5720 5721 5722 5723 5724 5723 5723 5722 5721 5720 5719 5717 5715 5713 5713 5713 5712 5710 5708 5706 5702 5700 5698 5694 5695 5696 5697 5700 5702 5704 5706 5709 5712 5717 5720 5725 5729 5734 5738 5743 5748 5752 5757
5715 5717 5718 5719 5719 5719 5718 5717 5717 5716 5715 5714 5712 5711 5711 5710 5709 5707 5705 5703 5700 5697 5693 5692 5692 5693 5694 5697 5699 5702 5704 5707 5712 5716 5720 5725 5729 5733 5738 5743 5747 5752 5756
5710 5712 5713 5714 5714 5714 5713 5713 5712 5712 5712 5711 5709 5708 5708 5708 5706 5705 5703 5701 5698 5694 5691 5688 5689 5691 5693 5695 5697 5700 5703 5707 5712 5716 5721 5726 5730 5734 5738 5742 5746 5751 5756
5706 5707 5708 5709 5710 5709 5709 5708 5707 5708 5708 5707 5706 5706 5706 5705 5705 5704 5702 5699 5696 5693 5691 5689 5688 5690 5691 5693 5696 5700 5703 5705 5710 5715 5720 5724 5729 5734 5737 5741 5745 5749 5753
5702 5704 5705 5706 5706 5705 5704 5704 5703 5703 5705 5704 5704 5703 5703 5703 5703 5702 5700 5698 5695 5692 5690 5688 5688 5690 5691 5693 5695 5699 5703 5707 5711 5714 5718 5724 5729 5733 5737 5742 5745 5748 5751
5699 5701 5702 5702 5702 5701 5700 5700 5700 5700 5701 5701 5701 5700 5700 5700 5701 5701 5699 5697 5694 5692 5690 5688 5688 5690 5692 5693 5696 5700 5704 5708 5713 5718 5721 5725 5730 5734 5739 5743 5747 5750 5755
5696 5698 5699 5699 5699 5698 5697 5697 5697 5697 5698 5699 5698 5698 5697 5698 5699 5699 5699 5697 5695 5692 5690 5689 5689 5690 5693 5695 5698 5702 5706 5711 5715 5720 5724 5728 5732 5736 5740 5743 5748 5753 5758
5694 5695 5696 5696 5696 5695 5695 5695 5695 5695 5695 5696 5696 5695 5696 5698 5699 5699 5698 5697 5695 5693 5692 5691 5690 5691 5694 5697 5700 5703 5708 5712 5717 5722 5727 5731 5735 5739 5743 5746 5750 5756 5760
5691 5693 5693 5693 5693 5693 5693 5693 5693 5693 5693 5694 5694 5694 5695 5697 5698 5698 5698 5697 5695 5694 5693 5693 5693 5694 5696 5699 5702 5705 5709 5713 5719 5724 5728 5732 5737 5741 5746 5750 5754 5758 5761
5689 5690 5691 5691 5691 5691 5690 5691 5690 5690 5690 5692 5692 5694 5695 5697 5698 5698 5698 5697 5696 5695 5694 5695 5695 5695 5697 5701 5704 5707 5711 5715 5719 5724 5729 5734 5739 5745 5749 5753 5756 5761 5763
5686 5688 5688 5689 5689 5689 5689 5688 5688 5687 5687 5690 5691 5693 5695 5697 5698 5698 5698 5697 5697 5697 5696 5697 5697 5698 5699 5702 5706 5709 5713 5718 5722 5726 5731 5736 5741 5745 5749 5753 5756 5759 5762
5684 5686 5686 5687 5687 5687 5687 5686 5685 5684 5686 5688 5690 5692 5695 5696 5698 5699 5698 5699 5698 5699 5699 5700 5700 5701 5702 5704 5707 5711 5715 5720 5724 5728 5733 5738 5741 5745 5747 5751 5755 5759 5762
5683 5684 5685 5686 5686 5686 5686 5685 5684 5683 5684 5687 5689 5691 5693 5696 5697 5698 5699 5700 5700 5700 5702 5703 5703 5704 5705 5707 5709 5713 5717 5721 5726 5730 5734 5737 5741 5745 5748 5752 5756 5760 5763
5680 5682 5684 5685 5685 5685 5685 5685 5684 5684 5684 5687 5690 5693 5694 5696 5697 5698 5699 5701 5702 5702 5703 5705 5705 5706 5708 5710 5713 5717 5721 5725 5728 5732 5735 5739 5743 5747 5750 5753 5757 5761 5764
5679 5681 5683 5685 5685 5686 5686 5685 5684 5685 5687 5689 5691 5694 5695 5697 5697 5698 5699 5701 5701 5703 5705 5707 5708 5710 5712 5715 5717 5720 5724 5728 5731 5735 5737 5741 5745 5748 5752 5755 5758 5762 5764
5678 5681 5683 5685 5686 5687 5686 5684 5683 5684 5687 5690 5693 5695 5697 5698 5699 5699 5701 5702 5703 5705 5707 5710 5713 5715 5718 5720 5722 5725 5728 5731 5734 5737 5740 5744 5747 5750 5753 5757 5759 5761 5763
5677 5680 5683 5685 5687 5688 5688 5686 5684 5686 5689 5692 5695 5697 5699 5701 5702 5702 5703 5705 5706 5708 5710 5712 5716 5719 5721 5723 5725 5727 5730 5733 5735 5738 5742 5745 5748 5750 5754 5756 5759 5761 5762
5677 5680 5683 5685 5687 5690 5690 5690 5689 5690 5691 5694 5697 5700 5702 5704 5706 5706 5707 5708 5709 5711 5713 5715 5718 5720 5723 5726 5729 5732 5734 5736 5738 5741 5743 5746 5748 5751 5753 5756 5757 5758 5759
5675 5679 5683 5685 5687 5690 5692 5692 5693 5693 5695 5697 5699 5701 5703 5705 5707 5708 5709 5711 5713 5714 5716 5718 5720 5722 5725 5727 5730 5732 5735 5737 5739 5741 5744 5746 5748 5750 5752 5753 5754 5755 5755
5674 5677 5681 5684 5687 5690 5692 5693 5695 5696 5698 5700 5702 5704 5705 5707 5709 5710 5712 5713 5714 5716 5718 5719 5722 5724 5726 5728 5730 5732 5734 5737 5739 5741 5743 5745 5746 5747 5749 5750 5750 5751 5751
5671 5675 5679 5683 5686 5689 5692 5694 5695 5698 5700 5701 5703 5705 5707 5709 5711 5712 5714 5716 5717 5719 5720 5721 5723 5724 5726 5728 5730 5732 5734 5736 5738 5740 5741 5743 5744 5745 5746 5746 5747 5747 5747
5666 5670 5675 5680 5684 5687 5690 5693 5695 5697 5700 5702 5704 5706 5708 5710 5712 5714 5716 5718 5719 5720 5722 5722 5724 5725 5727 5728 5730 5731 5733 5734 5736 5737 5738 5739 5740 5740 5741 5742 5742 5742 5741
5661 5666 5671 5675 5679 5683 5687 5690 5693 5695 5697 5700 5703 5705 5707 5709 5711 5713 5714 5716 5718 5719 5721 5722 5724 5725 5726 5728 5729 5730 5732 5733 5734 5735 5736 5737 5738 5738 5739 5738 5738 5737 5736
5656 5659 5664 5669 5673 5677 5681 5684 5687 5690 5693 5694 5696 5699 5702 5704 5706 5708 5710 5712 5713 5714 5715 5716 5718 5720 5722 5725 5726 5726 5726 5727 5728 5729 5730 5731 5731 5731 5730 5730 5728 5727 5726